2019 GM4
ephemeris date magn radius delta ra dec elong phase
Today5 Sep 202628.21.992 AU2.631 AU08h07m+15°11'41.5°19.6°
2019 GM4 - 2026-09-05
astro.vanbuitenen.nl


 
-1 year
-1 month
-1 day
Now
+1 day
+1 month
+1 year

The interactive orbit chart above shows the body's path through the solar system and its position at the given date. Green and blue lines are shown perpendicular to the ecliptic plane: Green if the path is above the ecliptic plane, blue if it is below. (Left-click and drag to rotate the view; Right-click and drag to move the view; Use scroll wheel to zoom in our out.)

The orbital elements of 2019 GM4 are:

            e (Eccentricity)                : 0.3939775
            a (Semimajor axis)              : 1.5760388
            i (Inclination)                 : 6.59738
            Ω (Longitude of ascending node) : 202.03365
            ω (Argument of perihelion)      : 46.50424
            M (Mean anomaly)                : 200.91036
            Epoch                           : 2026 Jun 09

            L (Longitude of perihelion)     : 248.34778
            B (Latitude of perihelion)      : 4.78088
            P (Orbital period in years)     : 1.98            
        

The light curve chart below shows the estimated development of the minor planet's magnitude.


The all-sky chart below shows the path of the minor planet over the same period as the light curve. The current position is marked yellow.





The following chart shows the path of the minor planet in the next few days. The field of view is optimized for (~10x50) binoculars and finderscopes.




Ephemerides:
Date       Time       RA (2000)    DEC (2000)    delta   radius  elong  phase   PA    magn
2026-09-05 00:00 UT   08 07 42.2   +15 11 19     2.631    1.992   41.5   19.6   277   28.2 
2026-09-05 01:37 UT   08 07 50.4   +15 10 49     2.630    1.991   41.6   19.6   277   28.2 
2026-09-06 00:00 UT   08 09 43.6   +15 03 52     2.620    1.989   42.0   19.8   277   28.2 
2026-09-07 00:00 UT   08 11 45.0   +14 56 19     2.609    1.985   42.4   20.0   277   28.2 
2026-09-08 00:00 UT   08 13 46.4   +14 48 39     2.598    1.982   42.9   20.2   277   28.2 
2026-09-09 00:00 UT   08 15 47.7   +14 40 53     2.586    1.979   43.4   20.5   278   28.1 
2026-09-10 00:00 UT   08 17 49.0   +14 33 01     2.575    1.976   43.8   20.7   278   28.1 
2026-09-11 00:00 UT   08 19 50.3   +14 25 02     2.563    1.972   44.3   20.9   278   28.1 
2026-09-12 00:00 UT   08 21 51.6   +14 16 57     2.552    1.969   44.8   21.1   278   28.1 
2026-09-13 00:00 UT   08 23 52.8   +14 08 46     2.540    1.966   45.2   21.3   279   28.1 
2026-09-14 00:00 UT   08 25 54.0   +14 00 29     2.528    1.962   45.7   21.5   279   28.1 
2026-09-15 00:00 UT   08 27 55.2   +13 52 06     2.517    1.959   46.1   21.7   279   28.1 
2026-09-16 00:00 UT   08 29 56.4   +13 43 37     2.505    1.955   46.6   21.9   279   28.1 
2026-09-17 00:00 UT   08 31 57.5   +13 35 02     2.493    1.952   47.1   22.1   279   28.1 
2026-09-18 00:00 UT   08 33 58.6   +13 26 20     2.481    1.948   47.5   22.4   280   28.1 
2026-09-19 00:00 UT   08 35 59.7   +13 17 33     2.469    1.945   48.0   22.6   280   28.1 
2026-09-20 00:00 UT   08 38 00.8   +13 08 39     2.456    1.941   48.4   22.8   280   28.1 
2026-09-21 00:00 UT   08 40 01.8   +12 59 39     2.444    1.938   48.9   23.0   280   28.1 


    Terminology:
            
    delta:  distance between minor planet and earth in AU
    radius: distance between minor planet and sun in AU
    magn:   magnitude (brightness) estimate    
    ra:     right ascension in hours (24h = 360deg)
    dec:    declination in degrees
    elong:  elongation in degrees (angle sun-earth-minor planet)    
    phase:  phase angle in degrees (angle sun-minor planet-earth)        
    AU:     Astronomical Unit (mean distance between earth and sun: 149597870.7 km
    

Orbital elements provided by the MPC (Minor Planet Center).
Calculations by a modified version of AAPlus, a C# implementation of the AA+ project by PJ Naughter from the algorithms presented in the book "Astronomical Algorithms" by Jean Meeus.
NGC2000 dso catalog and star labels from VizieR as provided by the Strasbourg astronomical Data Center.
Tycho2 catalog from the ESO archive.